Theta_e
319 310 310 307 297 297 292 295 298 301 302 306 310 306 306 310 307 299 325 330 336 337 340 343 346 347 347 347 347 347 347 345 342 339 338 338 338 337 338 337 338 339 341 340 340 340 339 337 336
310 311 310 302 294 290 291 296 299 302 308 312 312 310 309 305 318 323 324 334 336 337 338 339 344 347 346 347 346 347 347 345 342 339 337 337 336 337 337 338 338 340 340 340 340 339 339 337 336
310 310 305 296 290 290 292 297 300 304 311 306 310 313 311 310 319 325 325 334 335 334 336 337 343 347 346 346 346 348 347 345 342 339 337 337 336 335 336 337 338 340 341 340 339 338 338 336 335
308 308 305 297 293 293 296 298 304 304 304 309 310 307 313 322 323 326 332 333 332 332 334 338 343 346 346 347 347 346 345 345 343 339 336 336 335 335 335 336 336 338 339 338 337 338 337 335 334
306 303 297 296 296 298 296 301 303 302 303 305 307 305 309 320 325 329 330 331 332 330 332 335 341 345 346 346 346 345 346 345 343 340 337 336 335 334 335 335 336 336 336 335 336 335 336 335 334
302 301 294 293 297 298 299 304 304 303 303 307 310 310 312 319 324 325 328 327 329 329 331 334 335 339 342 344 345 345 344 343 342 340 338 336 335 334 334 334 335 334 335 334 334 332 334 335 333
299 297 293 293 295 297 300 305 301 302 304 307 314 308 310 314 321 325 325 327 329 329 329 329 331 333 335 338 340 341 342 341 340 340 339 337 336 335 335 334 332 332 331 331 332 331 331 333 333
301 298 294 295 294 295 300 303 303 303 303 312 315 306 308 316 322 324 326 329 331 327 326 325 327 329 331 333 333 335 337 337 337 336 333 332 331 331 331 330 332 330 329 329 330 329 329 330 331
303 296 292 296 297 298 300 300 300 304 308 307 312 312 315 320 323 324 324 325 327 329 324 323 325 325 328 330 328 330 331 332 331 329 326 324 323 323 323 327 330 330 330 329 328 328 327 324 326
301 296 297 301 301 302 301 298 300 303 304 305 309 314 318 320 321 320 321 320 322 326 325 322 323 324 326 331 327 327 327 327 325 323 321 321 320 320 321 320 325 327 326 328 327 327 323 318 314
304 299 301 302 304 303 302 298 299 301 300 305 308 313 316 317 319 319 320 320 320 325 326 322 322 323 324 326 323 322 321 321 321 319 319 319 319 317 316 315 314 314 315 315 317 316 315 315 314
297 304 305 307 306 303 306 301 300 301 303 303 308 317 316 316 318 319 319 320 321 325 326 323 322 322 323 324 323 321 319 318 318 318 319 318 316 315 314 313 312 312 313 312 313 313 314 314 314
298 301 300 303 303 303 303 302 303 300 303 304 314 317 316 317 318 320 321 321 322 323 325 325 322 323 324 322 321 320 319 318 317 317 319 318 316 315 314 313 312 311 312 313 312 312 313 313 313
302 302 303 305 303 305 302 300 300 302 302 308 316 316 316 317 318 318 321 321 322 322 324 326 323 323 324 323 322 322 319 318 317 317 318 319 318 316 314 313 313 312 313 312 312 312 312 312 312
302 300 303 304 306 303 300 298 295 302 303 308 313 315 316 317 317 319 321 322 323 323 324 324 324 324 323 323 321 321 321 320 318 318 319 319 318 316 315 314 314 314 314 312 310 311 311 310 310
298 297 295 301 305 306 301 298 299 301 299 302 310 312 316 317 318 320 321 323 324 324 323 324 326 324 322 322 322 322 321 320 319 318 318 319 319 318 316 315 315 315 313 312 309 309 309 309 310
297 292 296 298 305 304 301 297 305 306 298 297 299 309 313 316 318 320 320 320 323 325 324 323 324 323 323 322 322 322 321 320 320 319 319 319 319 318 317 316 316 315 313 312 311 310 310 310 312
289 290 291 292 299 302 299 296 302 300 301 301 298 300 310 314 317 322 323 322 321 325 324 325 325 325 323 323 322 320 320 321 320 321 321 320 320 319 317 316 316 315 313 312 310 311 311 315 317
294 292 292 294 300 298 297 299 302 304 297 295 296 297 300 310 317 319 322 324 319 322 324 324 324 325 324 323 321 321 320 321 321 322 322 321 321 319 318 316 315 314 314 313 312 312 315 316 317
297 295 293 296 300 297 296 296 299 302 302 301 302 302 298 300 306 313 319 321 323 321 323 324 324 325 325 325 324 324 323 323 323 323 322 322 321 320 319 318 316 314 313 312 312 313 315 316 316
294 294 294 294 296 296 294 294 295 300 302 304 305 303 302 300 301 303 313 319 322 322 322 324 325 325 325 327 326 321 322 318 319 321 321 321 322 321 321 319 318 316 315 315 313 313 316 315 313
287 293 295 295 294 288 292 285 292 296 299 300 304 306 306 303 302 304 304 315 319 322 324 323 324 325 326 326 325 324 324 322 324 324 324 323 322 322 322 320 319 318 317 316 315 314 318 315 313
290 295 293 293 289 288 286 287 287 294 295 299 301 304 307 309 308 305 305 309 317 320 323 323 323 324 325 325 326 324 323 324 324 324 321 321 321 322 321 321 320 319 318 318 316 313 316 316 316
295 293 292 292 291 284 288 288 288 290 293 297 298 302 306 308 308 308 308 306 311 318 320 322 321 321 324 324 324 323 323 322 321 319 319 319 320 320 321 321 321 321 319 318 318 319 318 317 317
296 290 281 281 281 279 287 287 289 293 296 296 296 299 304 307 307 305 302 302 307 312 317 320 320 319 322 322 323 323 323 322 320 320 320 319 320 319 320 320 320 320 320 320 320 320 320 318 318
291 288 280 273 275 278 283 284 290 295 299 298 297 301 299 299 301 303 302 301 304 308 315 318 318 319 320 321 322 323 323 323 322 322 321 321 320 320 320 320 321 321 321 321 321 321 321 320 319
287 287 291 284 282 280 280 284 290 295 294 296 295 295 297 300 302 299 300 301 302 306 313 317 318 318 319 320 322 322 322 322 322 322 321 321 321 320 319 320 320 321 321 321 323 322 321 320 319
288 291 285 286 277 274 280 280 284 287 288 291 293 296 299 299 298 298 297 299 301 305 311 315 318 318 319 319 321 321 321 322 322 320 319 320 320 319 319 320 320 320 321 323 323 322 320 318 317
288 286 286 285 282 276 275 279 290 290 293 294 297 297 295 295 295 296 296 297 300 304 310 312 315 317 319 319 319 320 320 321 321 320 320 320 319 319 320 320 321 322 321 320 319 317 315 316 314
291 287 287 282 276 282 283 283 291 291 291 290 291 291 290 290 291 293 293 294 295 302 307 311 314 316 318 319 320 319 320 320 320 320 319 319 319 318 319 319 319 317 315 314 315 313 311 312 310
Wind_Speed
8 6 1 5 6 6 1 2 1 3 0 0 4 5 5 2 4 3 2 2 7 6 5 6 9 10 10 11 11 12 15 16 16 15 14 14 14 14 14 13 14 14 15 16 15 17 17 17 17
5 4 5 3 6 3 4 2 4 4 4 6 5 2 4 1 2 4 5 3 6 6 5 5 10 10 11 11 10 12 15 16 16 14 13 13 12 13 13 12 13 13 15 15 15 16 17 16 16
3 5 5 5 3 3 4 3 5 2 6 2 4 3 1 3 2 9 2 8 6 6 5 5 9 10 10 10 9 13 14 15 16 14 12 12 12 12 12 11 12 14 15 14 15 15 15 15 15
5 6 4 5 1 1 2 4 6 7 1 2 4 5 1 3 7 5 8 8 7 6 5 7 9 10 10 10 11 12 13 14 15 14 12 11 11 12 11 10 12 12 13 13 15 15 14 15 15
5 4 4 3 3 3 2 2 5 4 4 2 2 3 2 2 4 9 9 7 10 6 5 6 8 12 11 11 12 12 14 14 13 13 12 11 10 10 11 10 11 11 11 13 14 14 12 13 13
5 4 4 1 4 4 2 6 6 2 2 3 4 5 4 1 7 6 7 7 5 7 5 5 7 9 10 10 11 12 13 13 13 12 11 10 9 9 10 10 10 10 11 12 13 13 12 12 13
6 4 3 2 2 5 0 5 4 5 3 4 8 6 2 3 3 6 7 6 5 5 6 5 5 6 8 10 9 11 12 12 11 10 10 10 9 8 9 8 9 10 10 11 12 13 13 10 11
6 5 4 4 2 3 1 4 1 6 6 2 4 4 5 6 8 7 7 9 9 4 5 5 5 5 5 5 8 8 10 10 10 10 9 8 9 10 9 7 7 9 10 11 12 12 12 12 10
4 5 3 5 7 3 3 3 1 1 6 2 4 5 1 12 11 8 9 9 9 5 5 5 6 5 5 5 5 7 8 9 9 8 8 6 4 4 6 5 7 8 8 9 9 9 10 10 9
4 6 8 3 4 4 2 2 4 3 3 3 3 1 7 13 14 14 14 14 13 13 9 5 6 6 6 4 5 5 5 4 5 5 6 4 4 3 4 4 6 6 6 6 7 9 9 6 3
3 8 7 3 1 1 5 2 1 6 3 8 9 6 9 9 13 12 13 11 14 15 10 7 6 6 6 5 4 3 2 3 4 6 5 4 4 3 3 2 2 2 3 3 4 4 4 4 3
2 6 5 8 5 0 2 2 1 7 6 2 9 8 9 14 16 16 15 12 12 15 14 8 7 6 6 4 4 4 4 3 3 4 6 4 3 3 3 2 3 2 1 2 2 2 2 3 3
3 3 5 5 2 4 2 7 6 7 8 3 4 11 15 15 16 13 10 7 8 15 15 12 9 9 7 6 4 4 4 4 4 4 5 4 4 4 3 3 2 2 1 1 1 1 1 1 2
1 3 5 3 4 4 4 4 6 7 4 6 8 12 13 15 18 8 10 13 14 13 14 12 10 9 8 7 7 6 4 5 4 4 5 6 4 4 4 4 3 3 2 1 1 1 1 1 1
2 4 5 4 3 5 3 7 9 8 3 8 9 8 9 15 8 16 16 16 14 12 12 13 12 10 10 9 7 5 5 5 4 5 6 6 5 5 5 4 3 3 2 2 1 0 0 1 2
4 2 3 2 5 6 5 11 8 8 8 10 10 8 10 12 15 14 11 11 11 9 12 11 11 12 11 10 7 6 5 5 5 5 4 7 6 6 5 4 4 3 3 3 2 2 1 2 2
1 3 5 8 7 2 8 4 10 8 10 10 9 10 10 10 10 13 12 12 12 13 12 12 12 13 13 10 7 7 6 6 5 4 5 6 6 6 5 4 4 5 4 3 3 3 3 2 3
6 5 4 7 2 5 7 9 15 7 8 15 10 9 10 13 18 18 14 13 13 12 12 12 11 13 12 8 6 4 4 5 5 6 6 7 7 7 6 4 5 5 4 3 2 4 3 3 3
3 4 5 3 6 4 7 8 15 14 6 9 9 9 11 13 19 10 13 13 8 11 12 15 15 15 11 9 8 7 9 7 6 7 9 8 7 7 7 5 5 5 5 6 5 3 4 3 2
2 4 3 4 5 3 6 13 10 15 8 10 16 15 13 10 13 10 14 14 16 17 19 16 16 16 14 11 9 7 8 7 7 7 7 8 8 8 8 8 6 6 4 5 5 5 3 3 3
8 11 6 4 6 4 6 19 10 12 15 15 16 16 12 16 18 14 14 17 18 18 19 19 20 20 16 16 8 3 3 2 4 5 6 8 10 10 10 9 7 7 6 6 6 6 7 4 3
7 7 7 10 1 8 3 16 8 6 19 12 16 17 19 19 18 19 17 17 19 21 20 19 20 19 17 18 14 16 13 13 11 10 8 8 11 11 10 10 9 8 7 7 7 6 7 5 5
3 7 7 5 4 3 4 8 7 7 17 20 12 17 19 20 22 23 20 20 19 19 19 20 20 19 19 18 19 14 16 11 9 8 8 10 8 11 11 11 10 9 7 8 8 6 8 6 6
6 5 4 2 1 10 15 9 20 13 14 20 7 13 19 20 19 19 17 17 17 16 18 18 20 21 19 19 21 20 19 15 10 9 9 8 8 8 11 11 10 10 9 9 9 11 11 10 9
5 4 1 4 6 11 9 10 29 7 13 11 10 14 15 15 14 14 15 16 16 18 20 18 20 21 21 21 21 21 21 18 17 14 11 11 9 7 11 12 11 9 10 10 9 10 10 10 10
9 7 5 7 5 5 2 11 19 8 11 11 11 17 12 11 13 15 15 17 19 18 19 20 20 21 21 22 22 20 19 13 13 14 11 9 9 9 10 12 11 11 11 11 10 8 8 9 9
5 10 8 4 3 4 6 10 15 15 15 15 13 8 13 16 16 14 12 14 16 16 19 22 22 21 20 22 19 18 18 18 15 14 12 9 9 7 10 11 11 12 11 11 12 9 10 8 7
5 6 5 5 6 7 7 6 16 3 3 5 9 15 19 15 10 10 11 13 15 17 17 19 20 21 21 22 19 17 18 17 15 11 13 13 11 10 10 11 11 11 11 11 11 8 6 7 5
6 9 3 1 6 4 7 10 16 15 13 17 18 14 11 11 10 9 10 11 14 13 13 16 17 18 18 19 18 17 16 16 14 13 13 14 11 12 12 11 11 11 10 9 7 6 6 6 5
7 9 16 10 7 3 9 22 6 8 8 7 12 14 9 9 11 11 10 9 8 13 13 16 17 18 18 17 18 19 17 15 15 15 14 13 13 10 12 10 10 8 8 7 7 7 6 6 6
Wind_Direction
330 326 56 40 54 66 109 220 137 107 169 12 107 140 182 77 155 206 359 230 132 130 129 118 116 116 113 114 121 118 113 108 99 93 91 89 89 85 83 88 91 100 95 85 82 86 92 86 84
332 338 40 68 80 64 272 265 159 180 152 125 80 59 50 107 94 133 128 165 127 123 117 117 117 121 123 124 122 120 113 109 103 99 96 97 92 87 86 91 98 101 92 85 85 90 89 88 86
41 34 70 80 100 157 195 200 158 117 152 90 104 59 133 166 349 159 152 137 121 114 124 129 119 122 125 126 129 120 119 116 113 109 105 101 99 93 88 89 98 94 93 87 86 89 91 86 82
31 9 42 73 328 261 221 181 162 132 231 119 132 75 8 229 156 191 139 127 123 129 132 136 130 130 129 136 123 122 127 121 118 117 114 109 106 98 92 89 99 95 91 88 83 81 89 86 86
39 55 41 47 299 279 262 167 151 150 151 133 148 172 31 4 104 130 133 133 142 134 133 134 136 127 129 130 127 128 129 125 120 119 118 114 108 104 96 97 92 94 95 92 84 83 91 93 88
46 96 52 306 302 302 288 153 151 147 133 157 84 123 178 44 133 151 131 131 133 136 135 140 134 126 124 121 129 134 128 123 120 121 123 119 114 108 97 95 96 95 93 92 87 78 85 96 92
108 81 182 215 266 319 100 145 170 161 147 248 154 132 281 178 185 141 132 127 131 137 138 142 141 137 127 127 124 130 127 122 122 126 129 122 105 98 96 92 98 94 91 94 91 79 77 93 95
106 88 145 224 199 257 56 194 128 152 213 112 171 181 222 199 149 123 120 150 162 152 150 154 148 143 134 134 133 132 129 126 122 113 115 112 111 106 97 73 84 90 86 83 83 81 73 72 99
125 74 220 218 159 225 3 185 121 109 116 248 204 161 269 127 128 137 153 165 178 176 173 175 160 160 151 145 148 135 129 130 126 122 112 95 102 97 86 86 76 79 81 81 78 74 73 72 69
116 138 217 242 183 146 324 179 171 143 111 249 265 300 113 139 156 170 177 180 189 189 189 187 175 165 156 145 150 146 142 144 137 138 137 131 126 106 94 77 72 70 67 65 61 58 67 73 67
284 179 182 204 234 226 132 108 335 122 235 228 211 178 158 162 173 182 190 194 189 194 191 185 182 169 164 153 154 150 151 147 151 152 151 142 128 131 119 101 84 74 62 44 40 42 47 61 73
336 319 179 170 152 124 286 145 256 172 227 281 236 159 170 176 187 191 195 190 184 192 198 190 179 175 179 158 172 162 157 161 162 174 162 150 148 154 155 167 176 159 111 73 57 51 48 44 44
192 330 345 332 170 196 153 242 226 230 243 272 133 155 185 197 200 203 197 186 186 196 200 198 179 183 180 176 172 172 177 173 180 176 183 164 166 176 173 194 191 190 140 172 95 93 62 7 357
87 304 280 300 305 285 191 231 144 259 175 163 172 188 196 201 205 182 199 193 194 196 200 190 194 189 181 183 184 190 174 180 176 187 194 187 177 174 182 193 197 200 187 186 170 189 213 311 325
87 324 327 226 228 262 208 270 198 224 177 187 202 212 202 211 196 205 208 208 198 202 194 191 189 185 190 194 186 187 189 180 182 197 197 190 183 188 186 182 191 207 191 181 109 268 317 311 322
134 108 280 28 192 234 180 263 228 192 169 222 216 204 212 211 215 222 207 213 206 194 196 191 191 190 189 198 192 192 190 187 191 194 191 193 192 187 191 187 206 188 170 171 179 183 227 254 245
241 192 205 310 196 243 198 274 248 225 177 231 221 213 211 227 227 222 210 201 202 198 191 192 190 191 194 196 191 194 192 193 197 187 196 196 194 191 188 191 192 185 184 188 188 199 191 222 255
185 200 196 200 233 210 249 263 278 296 242 228 215 224 212 213 230 225 215 203 203 200 195 193 194 194 194 188 187 189 187 204 195 204 203 191 195 192 186 189 191 178 180 199 191 207 215 232 249
94 203 222 227 243 247 242 244 259 265 242 266 263 229 228 224 233 220 214 216 185 197 194 196 192 195 186 190 189 205 208 206 209 210 205 194 196 190 189 191 187 179 189 198 189 192 215 239 227
296 298 252 295 266 247 268 262 239 267 245 218 244 244 222 235 244 210 206 199 204 204 203 202 204 194 195 196 202 207 196 208 211 208 203 198 192 193 192 193 195 186 185 195 193 187 200 221 178
246 249 252 260 334 278 318 279 242 255 246 230 236 240 231 222 236 226 213 200 208 210 209 203 203 203 198 197 187 156 138 117 186 197 205 203 198 195 196 193 189 191 185 203 197 198 199 221 229
225 187 212 257 69 262 53 284 245 240 261 231 232 236 233 227 230 229 219 205 203 210 210 205 206 205 203 195 193 201 209 215 216 215 216 201 197 202 199 192 191 194 193 202 202 193 210 185 228
222 149 176 191 222 299 221 277 287 215 248 261 237 234 238 235 232 235 226 211 207 206 206 205 205 206 202 196 201 199 210 215 211 208 210 204 197 201 195 194 192 195 194 206 194 182 205 205 222
162 87 57 72 200 244 240 221 271 244 242 265 238 237 237 242 237 242 233 220 215 207 206 203 200 204 199 199 200 200 207 204 198 195 201 204 204 202 201 196 199 203 199 199 203 212 210 209 218
171 147 230 224 199 243 184 200 250 282 287 257 252 259 248 249 251 237 224 213 216 207 202 200 197 200 196 196 198 203 206 200 202 201 200 194 196 197 204 195 199 199 200 202 205 209 208 213 214
191 183 183 212 215 261 88 223 255 230 258 275 279 259 253 254 247 242 226 217 218 214 206 199 196 201 195 195 201 203 201 201 206 204 200 200 197 198 187 198 199 201 200 204 208 216 213 214 218
187 202 217 287 129 277 220 277 293 255 255 261 259 260 258 259 252 238 238 228 223 214 204 202 201 202 194 197 200 199 198 201 205 203 193 195 192 184 187 194 195 200 202 202 205 211 217 212 208
161 146 173 180 232 244 245 256 251 332 315 280 267 266 262 271 268 247 234 224 222 220 212 207 206 201 194 196 196 199 197 200 201 190 188 188 189 185 187 194 197 199 202 204 199 208 200 186 191
176 226 190 131 191 216 275 261 255 264 236 246 271 280 273 281 273 270 259 249 230 217 212 209 205 202 201 192 194 195 196 197 193 195 193 192 183 190 196 197 196 199 198 188 181 185 177 191 187
208 212 212 217 246 254 274 273 220 220 238 229 260 270 282 280 285 286 269 257 239 226 203 207 203 202 201 197 189 193 192 186 189 194 193 187 193 191 196 191 190 174 163 166 170 174 181 186 194